Data No,UTC Date,UTC Time,Latitude,Longitude,Course(deg),Temp(degC),Sal(psu)
772,2023/9/21,12:51,35-35.84N,139-47.22E,214,27.663,
773,2023/9/21,12:52,35-35.65N,139-47.14E,190,27.545,
774,2023/9/21,12:53,35-35.46N,139-47.19E,159,27.51,
775,2023/9/21,12:54,35-35.27N,139-47.33E,146,27.393,
776,2023/9/21,12:55,35-35.07N,139-47.50E,147,27.371,
777,2023/9/21,12:56,35-34.87N,139-47.71E,134,27.257,
778,2023/9/21,12:57,35-34.68N,139-47.95E,133,27.497,
779,2023/9/21,12:58,35-34.49N,139-48.21E,130,27.418,
780,2023/9/21,12:59,35-34.31N,139-48.50E,126,27.405,
781,2023/9/21,13:00,35-34.14N,139-48.78E,126,27.367,
782,2023/9/21,13:01,35-33.96N,139-49.09E,126,27.368,
783,2023/9/21,13:02,35-33.78N,139-49.38E,127,27.271,
784,2023/9/21,13:03,35-33.60N,139-49.67E,125,27.32,
785,2023/9/21,13:04,35-33.41N,139-49.98E,127,27.211,
786,2023/9/21,13:05,35-33.23N,139-50.26E,129,27.256,
787,2023/9/21,13:06,35-33.02N,139-50.54E,141,27.29,
788,2023/9/21,13:07,35-32.76N,139-50.69E,156,27.228,
789,2023/9/21,13:08,35-32.49N,139-50.82E,160,27.239,
790,2023/9/21,13:09,35-32.22N,139-50.93E,160,27.15,
791,2023/9/21,13:10,35-31.95N,139-51.03E,165,27.178,
792,2023/9/21,13:11,35-31.67N,139-51.12E,165,27.178,
793,2023/9/21,13:12,35-31.41N,139-51.21E,165,27.136,
794,2023/9/21,13:13,35-31.13N,139-51.30E,164,27.064,
795,2023/9/21,13:14,35-30.86N,139-51.39E,167,27.117,
796,2023/9/21,13:15,35-30.58N,139-51.38E,188,27.154,
797,2023/9/21,13:16,35-30.32N,139-51.25E,207,27.129,
798,2023/9/21,13:17,35-30.09N,139-51.09E,209,27.109,
799,2023/9/21,13:18,35-29.85N,139-50.92E,210,27.095,
800,2023/9/21,13:19,35-29.61N,139-50.75E,209,27.082,
801,2023/9/21,13:20,35-29.38N,139-50.56E,219,27.061,
802,2023/9/21,13:21,35-29.20N,139-50.29E,232,27.164,
803,2023/9/21,13:22,35-29.04N,139-50.04E,232,27.193,
804,2023/9/21,13:23,35-28.86N,139-49.77E,231,27.199,
805,2023/9/21,13:24,35-28.69N,139-49.49E,231,27.212,
806,2023/9/21,13:25,35-28.53N,139-49.24E,232,27.199,
807,2023/9/21,13:26,35-28.35N,139-48.96E,232,27.176,
808,2023/9/21,13:27,35-28.19N,139-48.69E,232,27.16,
809,2023/9/21,13:28,35-28.01N,139-48.41E,232,27.128,
810,2023/9/21,13:29,35-27.84N,139-48.14E,232,27.094,
811,2023/9/21,13:30,35-27.67N,139-47.87E,232,26.983,
812,2023/9/21,13:31,35-27.50N,139-47.59E,232,26.884,
813,2023/9/21,13:32,35-27.33N,139-47.32E,233,26.837,
814,2023/9/21,13:33,35-27.16N,139-47.05E,233,26.802,
815,2023/9/21,13:34,35-26.99N,139-46.76E,232,26.716,
816,2023/9/21,13:35,35-26.82N,139-46.49E,232,26.704,
817,2023/9/21,13:36,35-26.64N,139-46.21E,233,26.71,
818,2023/9/21,13:37,35-26.48N,139-45.93E,233,26.69,
819,2023/9/21,13:38,35-26.29N,139-45.66E,230,26.639,
820,2023/9/21,13:39,35-26.10N,139-45.37E,231,26.635,
821,2023/9/21,13:40,35-25.93N,139-45.11E,231,26.654,
822,2023/9/21,13:41,35-25.74N,139-44.83E,230,26.587,
823,2023/9/21,13:42,35-25.57N,139-44.57E,230,26.596,
824,2023/9/21,13:43,35-25.39N,139-44.29E,230,26.603,
825,2023/9/21,13:44,35-25.20N,139-44.01E,230,26.636,
826,2023/9/21,13:45,35-25.02N,139-43.75E,230,26.606,
827,2023/9/21,13:46,35-24.83N,139-43.48E,227,26.514,
828,2023/9/21,13:47,35-24.61N,139-43.29E,209,26.493,
829,2023/9/21,13:48,35-24.35N,139-43.12E,208,26.418,
830,2023/9/21,13:49,35-24.10N,139-42.95E,208,26.442,
831,2023/9/21,13:50,35-23.84N,139-42.78E,208,26.442,
832,2023/9/21,13:51,35-23.57N,139-42.60E,208,26.289,
833,2023/9/21,13:52,35-23.32N,139-42.44E,208,26.336,
834,2023/9/21,13:53,35-23.05N,139-42.33E,190,26.594,
835,2023/9/21,13:54,35-22.75N,139-42.33E,178,26.687,
836,2023/9/21,13:55,35-22.46N,139-42.35E,176,26.706,
837,2023/9/21,13:56,35-22.16N,139-42.38E,174,26.664,
838,2023/9/21,13:57,35-21.86N,139-42.42E,174,26.607,
839,2023/9/21,13:58,35-21.56N,139-42.45E,174,26.516,
840,2023/9/21,13:59,35-21.25N,139-42.49E,174,26.465,
841,2023/9/21,14:00,35-20.96N,139-42.52E,174,26.39,
842,2023/9/21,14:01,35-20.65N,139-42.56E,173,26.392,
843,2023/9/21,14:02,35-20.37N,139-42.60E,173,26.378,
844,2023/9/21,14:03,35-20.13N,139-42.64E,174,26.328,
845,2023/9/21,14:04,35-19.90N,139-42.67E,169,26.245,
846,2023/9/21,14:05,35-19.72N,139-42.78E,150,26.298,
847,2023/9/21,14:06,35-19.54N,139-42.92E,146,26.386,
848,2023/9/21,14:07,35-19.36N,139-43.06E,149,26.416,
849,2023/9/21,14:08,35-19.18N,139-43.19E,147,26.401,
850,2023/9/21,14:09,35-19.00N,139-43.34E,144,26.416,
851,2023/9/21,14:10,35-18.83N,139-43.49E,146,26.408,
852,2023/9/21,14:11,35-18.64N,139-43.63E,147,26.41,
853,2023/9/21,14:12,35-18.47N,139-43.78E,144,26.402,
854,2023/9/21,14:13,35-18.29N,139-43.95E,141,26.413,
855,2023/9/21,14:14,35-18.11N,139-44.12E,141,26.449,
856,2023/9/21,14:15,35-17.94N,139-44.28E,143,26.454,
857,2023/9/21,14:16,35-17.76N,139-44.45E,142,26.409,
858,2023/9/21,14:17,35-17.57N,139-44.61E,145,26.382,
859,2023/9/21,14:18,35-17.38N,139-44.76E,146,26.368,
860,2023/9/21,14:19,35-17.20N,139-44.92E,144,26.376,
861,2023/9/21,14:20,35-17.03N,139-45.07E,144,26.334,
862,2023/9/21,14:21,35-16.84N,139-45.22E,146,26.341,
863,2023/9/21,14:22,35-16.65N,139-45.37E,146,26.375,
864,2023/9/21,14:23,35-16.47N,139-45.53E,145,26.405,
865,2023/9/21,14:24,35-16.27N,139-45.68E,147,26.429,
866,2023/9/21,14:25,35-16.10N,139-45.82E,147,26.435,
867,2023/9/21,14:26,35-15.91N,139-45.97E,148,26.429,
868,2023/9/21,14:27,35-15.71N,139-46.11E,147,26.429,
869,2023/9/21,14:28,35-15.52N,139-46.22E,161,26.414,
870,2023/9/21,14:29,35-15.30N,139-46.27E,172,26.385,
871,2023/9/21,14:30,35-15.10N,139-46.28E,177,26.351,
872,2023/9/21,14:31,35-14.89N,139-46.29E,178,26.339,
873,2023/9/21,14:32,35-14.69N,139-46.30E,177,26.333,
874,2023/9/21,14:33,35-14.48N,139-46.31E,177,26.372,
875,2023/9/21,14:34,35-14.26N,139-46.32E,177,26.337,
876,2023/9/21,14:35,35-14.06N,139-46.34E,176,26.324,
877,2023/9/21,14:36,35-13.85N,139-46.36E,176,26.317,
878,2023/9/21,14:37,35-13.64N,139-46.36E,178,26.3,
879,2023/9/21,14:38,35-13.42N,139-46.37E,178,26.295,
880,2023/9/21,14:39,35-13.19N,139-46.37E,180,26.327,
881,2023/9/21,14:40,35-12.96N,139-46.36E,184,26.367,
882,2023/9/21,14:41,35-12.74N,139-46.30E,192,26.442,
883,2023/9/21,14:42,35-12.51N,139-46.24E,193,26.427,
884,2023/9/21,14:43,35-12.27N,139-46.17E,193,26.42,
885,2023/9/21,14:44,35-12.03N,139-46.10E,194,26.436,
886,2023/9/21,14:45,35-11.74N,139-46.00E,196,26.393,
887,2023/9/21,14:46,35-11.48N,139-45.91E,196,26.343,
888,2023/9/21,14:47,35-11.22N,139-45.82E,196,26.345,
889,2023/9/21,14:48,35-10.97N,139-45.74E,194,26.324,
890,2023/9/21,14:49,35-10.70N,139-45.65E,194,26.305,
891,2023/9/21,14:50,35-10.43N,139-45.57E,195,26.285,
892,2023/9/21,14:51,35-10.16N,139-45.47E,195,26.322,
893,2023/9/21,14:52,35-09.89N,139-45.38E,195,26.257,
894,2023/9/21,14:53,35-09.62N,139-45.30E,194,26.283,
895,2023/9/21,14:54,35-09.34N,139-45.21E,194,26.465,
896,2023/9/21,14:55,35-09.07N,139-45.12E,194,26.5,
897,2023/9/21,14:56,35-08.80N,139-45.02E,198,26.461,
898,2023/9/21,14:57,35-08.54N,139-44.92E,198,26.457,
899,2023/9/21,14:58,35-08.27N,139-44.81E,198,26.431,
900,2023/9/21,14:59,35-08.00N,139-44.70E,198,26.419,
901,2023/9/21,15:00,35-07.73N,139-44.60E,198,26.367,
902,2023/9/21,15:01,35-07.46N,139-44.49E,198,26.229,
903,2023/9/21,15:02,35-07.19N,139-44.38E,198,26.255,
904,2023/9/21,15:03,35-06.92N,139-44.28E,197,26.3,
905,2023/9/21,15:04,35-06.64N,139-44.17E,198,26.329,
906,2023/9/21,15:05,35-06.38N,139-44.06E,197,26.36,
907,2023/9/21,15:06,35-06.10N,139-43.96E,197,26.416,
908,2023/9/21,15:07,35-05.84N,139-43.84E,200,26.47,
909,2023/9/21,15:08,35-05.57N,139-43.72E,200,26.497,
910,2023/9/21,15:09,35-05.29N,139-43.59E,200,26.491,
911,2023/9/21,15:10,35-05.03N,139-43.48E,200,26.473,
912,2023/9/21,15:11,35-04.75N,139-43.36E,199,26.439,
913,2023/9/21,15:12,35-04.48N,139-43.24E,199,26.453,
914,2023/9/21,15:13,35-04.20N,139-43.13E,199,26.476,
915,2023/9/21,15:14,35-03.95N,139-43.02E,199,26.497,
916,2023/9/21,15:15,35-03.69N,139-42.91E,198,26.525,
917,2023/9/21,15:16,35-03.41N,139-42.83E,192,26.551,
918,2023/9/21,15:17,35-03.12N,139-42.78E,187,26.56,
919,2023/9/21,15:18,35-02.83N,139-42.75E,182,26.577,
920,2023/9/21,15:19,35-02.54N,139-42.74E,182,26.597,
921,2023/9/21,15:20,35-02.26N,139-42.72E,183,26.614,
922,2023/9/21,15:21,35-01.96N,139-42.69E,185,26.624,
923,2023/9/21,15:22,35-01.66N,139-42.66E,184,26.628,
924,2023/9/21,15:23,35-01.38N,139-42.64E,184,26.624,
925,2023/9/21,15:24,35-01.08N,139-42.61E,184,26.631,
926,2023/9/21,15:25,35-00.80N,139-42.58E,184,26.645,
927,2023/9/21,15:26,35-00.51N,139-42.53E,188,26.675,
928,2023/9/21,15:27,35-00.21N,139-42.48E,188,26.698,
929,2023/9/21,15:28,34-59.92N,139-42.42E,188,26.705,
930,2023/9/21,15:29,34-59.62N,139-42.37E,187,26.678,
931,2023/9/21,15:30,34-59.33N,139-42.33E,186,26.613,
932,2023/9/21,15:31,34-59.03N,139-42.29E,186,26.575,
933,2023/9/21,15:32,34-58.74N,139-42.26E,185,26.512,
934,2023/9/21,15:33,34-58.45N,139-42.23E,183,26.395,
935,2023/9/21,15:34,34-58.14N,139-42.21E,181,26.401,
936,2023/9/21,15:35,34-57.85N,139-42.27E,164,26.379,
937,2023/9/21,15:36,34-57.58N,139-42.43E,150,26.344,
938,2023/9/21,15:37,34-57.32N,139-42.65E,144,26.353,
939,2023/9/21,15:38,34-57.05N,139-42.89E,145,26.447,
940,2023/9/21,15:39,34-56.79N,139-43.11E,145,26.485,
941,2023/9/21,15:40,34-56.51N,139-43.35E,144,26.538,
942,2023/9/21,15:41,34-56.25N,139-43.57E,144,26.688,
943,2023/9/21,15:42,34-55.97N,139-43.81E,145,26.717,
944,2023/9/21,15:43,34-55.69N,139-44.06E,143,26.711,
945,2023/9/21,15:44,34-55.40N,139-44.31E,143,26.695,
946,2023/9/21,15:45,34-55.14N,139-44.54E,144,26.666,
947,2023/9/21,15:46,34-54.86N,139-44.79E,144,26.719,
948,2023/9/21,15:47,34-54.57N,139-45.04E,144,26.789,
949,2023/9/21,15:48,34-54.29N,139-45.28E,145,26.829,
950,2023/9/21,15:49,34-53.99N,139-45.53E,145,26.828,
951,2023/9/21,15:50,34-53.71N,139-45.77E,145,26.814,
952,2023/9/21,15:51,34-53.42N,139-46.01E,146,26.773,
953,2023/9/21,15:52,34-53.13N,139-46.25E,145,26.8,
954,2023/9/21,15:53,34-52.80N,139-46.52E,146,26.86,
955,2023/9/21,15:54,34-52.50N,139-46.77E,145,26.934,
956,2023/9/21,15:55,34-52.26N,139-46.97E,145,27.008,
957,2023/9/21,15:56,34-51.96N,139-47.20E,146,26.875,
958,2023/9/21,15:57,34-51.67N,139-47.47E,141,26.768,
959,2023/9/21,15:58,34-51.41N,139-47.76E,135,26.618,
960,2023/9/21,15:59,34-51.18N,139-48.09E,128,26.693,
961,2023/9/21,16:00,34-50.98N,139-48.44E,123,26.471,
962,2023/9/21,16:01,34-50.80N,139-48.87E,114,26.167,
963,2023/9/21,16:02,34-50.66N,139-49.26E,113,26.133,
964,2023/9/21,16:03,34-50.56N,139-49.62E,108,26.054,
965,2023/9/21,16:04,34-50.46N,139-50.02E,104,25.945,
966,2023/9/21,16:05,34-50.38N,139-50.41E,102,25.811,
967,2023/9/21,16:06,34-50.33N,139-50.82E,97,25.846,
968,2023/9/21,16:07,34-50.31N,139-51.24E,92,25.739,
969,2023/9/21,16:08,34-50.30N,139-51.63E,92,25.633,
970,2023/9/21,16:09,34-50.29N,139-52.04E,88,25.577,
971,2023/9/21,16:10,34-50.31N,139-52.43E,83,24.682,
972,2023/9/21,16:11,34-50.36N,139-52.81E,80,23.889,
973,2023/9/21,16:12,34-50.44N,139-53.18E,75,22.791,
974,2023/9/21,16:13,34-50.53N,139-53.54E,70,22.399,
975,2023/9/21,16:14,34-50.63N,139-53.89E,71,22.45,
976,2023/9/21,16:15,34-50.73N,139-54.24E,69,22.652,
977,2023/9/21,16:16,34-50.84N,139-54.59E,67,22.67,
978,2023/9/21,16:17,34-50.98N,139-54.93E,65,22.358,
979,2023/9/21,16:18,34-51.10N,139-55.26E,65,22.363,
980,2023/9/21,16:19,34-51.23N,139-55.60E,65,22.446,
981,2023/9/21,16:20,34-51.35N,139-55.95E,66,22.503,
982,2023/9/21,16:21,34-51.47N,139-56.28E,66,22.615,
983,2023/9/21,16:22,34-51.60N,139-56.63E,66,22.764,
984,2023/9/21,16:23,34-51.72N,139-56.99E,67,22.876,
985,2023/9/21,16:24,34-51.85N,139-57.33E,66,22.883,
986,2023/9/21,16:25,34-51.97N,139-57.67E,65,22.867,
987,2023/9/21,16:26,34-52.09N,139-58.02E,67,22.91,
988,2023/9/21,16:27,34-52.21N,139-58.38E,66,22.837,
989,2023/9/21,16:28,34-52.33N,139-58.72E,67,22.748,
990,2023/9/21,16:29,34-52.46N,139-59.08E,64,22.712,
991,2023/9/21,16:30,34-52.60N,139-59.41E,61,22.758,
992,2023/9/21,16:31,34-52.75N,139-59.74E,62,22.692,
993,2023/9/21,16:32,34-52.90N,140-00.09E,62,22.703,
994,2023/9/21,16:33,34-53.04N,140-00.43E,63,22.705,
995,2023/9/21,16:34,34-53.18N,140-00.77E,63,22.651,
996,2023/9/21,16:35,34-53.33N,140-01.10E,62,22.582,
997,2023/9/21,16:36,34-53.47N,140-01.44E,62,22.512,
998,2023/9/21,16:37,34-53.61N,140-01.80E,67,22.373,
999,2023/9/21,16:38,34-53.73N,140-02.15E,68,22.344,
1000,2023/9/21,16:39,34-53.85N,140-02.52E,68,22.426,
1001,2023/9/21,16:40,34-53.96N,140-02.85E,67,22.526,
1002,2023/9/21,16:41,34-54.08N,140-03.20E,68,22.668,
1003,2023/9/21,16:42,34-54.20N,140-03.55E,67,22.799,
1004,2023/9/21,16:43,34-54.32N,140-03.91E,67,22.913,
1005,2023/9/21,16:44,34-54.44N,140-04.26E,67,23.015,
1006,2023/9/21,16:45,34-54.57N,140-04.60E,64,23.078,
1007,2023/9/21,16:46,34-54.70N,140-04.95E,65,23.1,
1008,2023/9/21,16:47,34-54.84N,140-05.31E,65,23.182,
1009,2023/9/21,16:48,34-54.99N,140-05.65E,61,23.32,
1010,2023/9/21,16:49,34-55.13N,140-05.97E,61,23.435,
1011,2023/9/21,16:50,34-55.27N,140-06.31E,61,23.536,
1012,2023/9/21,16:51,34-55.43N,140-06.64E,60,23.606,
1013,2023/9/21,16:52,34-55.58N,140-06.98E,62,23.67,
1014,2023/9/21,16:53,34-55.72N,140-07.33E,62,23.774,
1015,2023/9/21,16:54,34-55.87N,140-07.66E,61,23.938,
1016,2023/9/21,16:55,34-56.02N,140-08.00E,60,24.059,
1017,2023/9/21,16:56,34-56.18N,140-08.33E,60,24.208,
1018,2023/9/21,16:57,34-56.33N,140-08.67E,62,24.35,
1019,2023/9/21,16:58,34-56.48N,140-09.02E,61,24.464,
1020,2023/9/21,16:59,34-56.63N,140-09.35E,61,24.502,
1021,2023/9/21,17:00,34-56.79N,140-09.68E,60,24.535,
1022,2023/9/21,17:01,34-56.93N,140-10.01E,61,24.519,
1023,2023/9/21,17:02,34-57.09N,140-10.35E,59,24.47,
1024,2023/9/21,17:03,34-57.25N,140-10.69E,60,24.45,
1025,2023/9/21,17:04,34-57.39N,140-11.01E,61,24.399,
1026,2023/9/21,17:05,34-57.55N,140-11.35E,60,24.373,
1027,2023/9/21,17:06,34-57.71N,140-11.67E,59,24.373,
1028,2023/9/21,17:07,34-57.86N,140-12.01E,60,24.349,
1029,2023/9/21,17:08,34-58.01N,140-12.35E,61,24.329,
1030,2023/9/21,17:09,34-58.16N,140-12.68E,59,24.301,
1031,2023/9/21,17:10,34-58.33N,140-13.02E,60,24.285,
1032,2023/9/21,17:11,34-58.48N,140-13.34E,59,24.281,
1033,2023/9/21,17:12,34-58.64N,140-13.68E,59,24.269,
1034,2023/9/21,17:13,34-58.79N,140-14.00E,60,24.33,
1035,2023/9/21,17:14,34-58.94N,140-14.33E,61,24.375,
1036,2023/9/21,17:15,34-59.09N,140-14.66E,60,24.434,
1037,2023/9/21,17:16,34-59.24N,140-14.98E,60,24.468,
1038,2023/9/21,17:17,34-59.39N,140-15.30E,59,24.471,
1039,2023/9/21,17:18,34-59.54N,140-15.63E,60,24.458,
1040,2023/9/21,17:19,34-59.69N,140-15.94E,61,24.422,
1041,2023/9/21,17:20,34-59.84N,140-16.27E,61,24.388,
1042,2023/9/21,17:21,34-59.98N,140-16.59E,62,24.359,
1043,2023/9/21,17:22,35-00.14N,140-16.93E,60,24.366,
1044,2023/9/21,17:23,35-00.29N,140-17.26E,60,24.414,
1045,2023/9/21,17:24,35-00.43N,140-17.58E,61,24.442,
1046,2023/9/21,17:25,35-00.57N,140-17.92E,62,24.438,
1047,2023/9/21,17:26,35-00.73N,140-18.25E,59,24.455,
1048,2023/9/21,17:27,35-00.87N,140-18.57E,61,24.448,
1049,2023/9/21,17:28,35-01.02N,140-18.89E,61,24.34,
1050,2023/9/21,17:29,35-01.16N,140-19.22E,61,24.326,
1051,2023/9/21,17:30,35-01.32N,140-19.54E,59,24.327,
1052,2023/9/21,17:31,35-01.47N,140-19.87E,60,24.333,
1053,2023/9/21,17:32,35-01.62N,140-20.20E,61,24.279,
1054,2023/9/21,17:33,35-01.77N,140-20.53E,60,24.245,
1055,2023/9/21,17:34,35-01.93N,140-20.86E,59,24.163,
1056,2023/9/21,17:35,35-02.08N,140-21.19E,59,24.111,
1057,2023/9/21,17:36,35-02.25N,140-21.53E,57,24.08,
1058,2023/9/21,17:37,35-02.42N,140-21.87E,59,24.042,
1059,2023/9/21,17:38,35-02.59N,140-22.21E,57,24.016,
1060,2023/9/21,17:39,35-02.75N,140-22.53E,57,23.969,
1061,2023/9/21,17:40,35-02.92N,140-22.85E,59,23.93,
1062,2023/9/21,17:41,35-03.09N,140-23.17E,56,23.9,
1063,2023/9/21,17:42,35-03.26N,140-23.48E,56,23.766,
1064,2023/9/21,17:43,35-03.43N,140-23.80E,56,23.636,
1065,2023/9/21,17:44,35-03.61N,140-24.13E,56,23.504,
1066,2023/9/21,17:45,35-03.79N,140-24.45E,56,23.445,
1067,2023/9/21,17:46,35-03.96N,140-24.77E,56,23.492,
1068,2023/9/21,17:47,35-04.15N,140-25.10E,56,23.521,
1069,2023/9/21,17:48,35-04.30N,140-25.41E,58,23.5,
1070,2023/9/21,17:49,35-04.46N,140-25.73E,59,23.543,
1071,2023/9/21,17:50,35-04.62N,140-26.07E,59,23.551,
1072,2023/9/21,17:51,35-04.78N,140-26.40E,59,23.549,
1073,2023/9/21,17:52,35-04.94N,140-26.73E,60,23.555,
1074,2023/9/21,17:53,35-05.09N,140-27.05E,60,23.491,
1075,2023/9/21,17:54,35-05.25N,140-27.38E,58,23.443,
1076,2023/9/21,17:55,35-05.42N,140-27.71E,59,23.453,
1077,2023/9/21,17:56,35-05.57N,140-28.03E,59,23.412,
1078,2023/9/21,17:57,35-05.74N,140-28.38E,59,23.26,
1079,2023/9/21,17:58,35-05.90N,140-28.72E,59,23.367,
1080,2023/9/21,17:59,35-06.05N,140-29.05E,60,23.383,
1081,2023/9/21,18:00,35-06.21N,140-29.38E,60,23.107,
1082,2023/9/21,18:01,35-06.37N,140-29.71E,61,23.126,
1083,2023/9/21,18:02,35-06.53N,140-30.05E,59,23.196,
1084,2023/9/21,18:03,35-06.68N,140-30.35E,59,23.275,
1085,2023/9/21,18:04,35-06.84N,140-30.69E,60,23.274,
1086,2023/9/21,18:05,35-07.01N,140-31.06E,60,23.207,
1087,2023/9/21,18:06,35-07.16N,140-31.38E,60,23.155,
1088,2023/9/21,18:07,35-07.33N,140-31.71E,56,23.159,
1089,2023/9/21,18:08,35-07.49N,140-31.99E,53,23.164,
1090,2023/9/21,18:09,35-07.70N,140-32.31E,51,23.157,
1091,2023/9/21,18:10,35-07.91N,140-32.61E,50,23.102,
1092,2023/9/21,18:11,35-08.11N,140-32.90E,51,23.075,
1093,2023/9/21,18:12,35-08.31N,140-33.22E,53,23.074,
1094,2023/9/21,18:13,35-08.51N,140-33.51E,50,23.078,
1095,2023/9/21,18:14,35-08.71N,140-33.81E,50,23.099,
1096,2023/9/21,18:15,35-08.91N,140-34.11E,50,23.147,
1097,2023/9/21,18:16,35-09.09N,140-34.43E,56,23.189,
1098,2023/9/21,18:17,35-09.27N,140-34.76E,56,23.224,
1099,2023/9/21,18:18,35-09.45N,140-35.09E,55,23.217,
1100,2023/9/21,18:19,35-09.62N,140-35.40E,56,23.145,
1101,2023/9/21,18:20,35-09.82N,140-35.72E,51,23.117,
1102,2023/9/21,18:21,35-10.03N,140-35.98E,45,23.116,
1103,2023/9/21,18:22,35-10.25N,140-36.26E,46,23.082,
1104,2023/9/21,18:23,35-10.50N,140-36.50E,35,23.038,
1105,2023/9/21,18:24,35-10.76N,140-36.68E,28,22.983,
1106,2023/9/21,18:25,35-11.05N,140-36.82E,22,22.829,
1107,2023/9/21,18:26,35-11.34N,140-36.98E,23,22.694,
1108,2023/9/21,18:27,35-11.62N,140-37.13E,24,22.558,
1109,2023/9/21,18:28,35-11.91N,140-37.28E,23,22.481,
1110,2023/9/21,18:29,35-12.15N,140-37.41E,25,22.626,
1111,2023/9/21,18:30,35-12.44N,140-37.57E,23,22.775,
1112,2023/9/21,18:31,35-12.73N,140-37.74E,24,22.957,
1113,2023/9/21,18:32,35-13.04N,140-37.92E,24,23.168,
1114,2023/9/21,18:33,35-13.33N,140-38.08E,25,23.281,
1115,2023/9/21,18:34,35-13.58N,140-38.22E,24,23.532,
1116,2023/9/21,18:35,35-13.86N,140-38.38E,25,23.697,
1117,2023/9/21,18:36,35-14.17N,140-38.56E,24,23.84,
1118,2023/9/21,18:37,35-14.46N,140-38.73E,25,23.932,
1119,2023/9/21,18:38,35-14.73N,140-38.87E,24,23.934,
1120,2023/9/21,18:39,35-14.99N,140-39.02E,23,23.927,
1121,2023/9/21,18:40,35-15.31N,140-39.20E,24,23.947,
1122,2023/9/21,18:41,35-15.59N,140-39.37E,25,24.002,
1123,2023/9/21,18:42,35-15.87N,140-39.55E,29,23.972,
1124,2023/9/21,18:43,35-16.15N,140-39.74E,29,24.011,
1125,2023/9/21,18:44,35-16.37N,140-39.91E,31,24.014,
1126,2023/9/21,18:45,35-16.68N,140-40.15E,32,24.032,
1127,2023/9/21,18:46,35-16.94N,140-40.34E,31,24.103,
1128,2023/9/21,18:47,35-17.20N,140-40.56E,34,24.155,
1129,2023/9/21,18:48,35-17.47N,140-40.79E,35,24.201,
1130,2023/9/21,18:49,35-17.67N,140-40.97E,34,24.241,
1131,2023/9/21,18:50,35-17.94N,140-41.19E,35,24.257,
1132,2023/9/21,18:51,35-18.19N,140-41.40E,35,24.256,
1133,2023/9/21,18:52,35-18.44N,140-41.62E,35,24.253,
1134,2023/9/21,18:53,35-18.71N,140-41.84E,34,24.25,
1135,2023/9/21,18:54,35-18.95N,140-42.05E,35,24.264,
1136,2023/9/21,18:55,35-19.21N,140-42.28E,35,24.284,
1137,2023/9/21,18:56,35-19.46N,140-42.49E,34,24.321,
1138,2023/9/21,18:57,35-19.71N,140-42.71E,35,24.332,
1139,2023/9/21,18:58,35-19.97N,140-42.93E,35,24.34,
1140,2023/9/21,18:59,35-20.22N,140-43.14E,34,24.34,
1141,2023/9/21,19:00,35-20.48N,140-43.36E,35,24.339,
1142,2023/9/21,19:01,35-20.73N,140-43.57E,34,24.368,
1143,2023/9/21,19:02,35-20.98N,140-43.79E,35,24.44,
1144,2023/9/21,19:03,35-21.25N,140-44.01E,34,24.504,
1145,2023/9/21,19:04,35-21.50N,140-44.21E,33,24.546,
1146,2023/9/21,19:05,35-21.76N,140-44.43E,34,24.572,
1147,2023/9/21,19:06,35-22.02N,140-44.65E,34,24.596,
1148,2023/9/21,19:07,35-22.27N,140-44.86E,36,24.619,
1149,2023/9/21,19:08,35-22.53N,140-45.09E,35,24.655,
1150,2023/9/21,19:09,35-22.78N,140-45.30E,34,24.699,
1151,2023/9/21,19:10,35-23.04N,140-45.52E,35,24.749,
1152,2023/9/21,19:11,35-23.29N,140-45.74E,34,24.787,
1153,2023/9/21,19:12,35-23.55N,140-45.95E,34,24.814,
1154,2023/9/21,19:13,35-23.81N,140-46.17E,35,24.858,
1155,2023/9/21,19:14,35-24.07N,140-46.40E,35,24.849,
1156,2023/9/21,19:15,35-24.32N,140-46.61E,34,24.848,
1157,2023/9/21,19:16,35-24.57N,140-46.83E,34,24.866,
1158,2023/9/21,19:17,35-24.83N,140-47.05E,35,24.876,
1159,2023/9/21,19:18,35-25.12N,140-47.30E,35,24.862,
1160,2023/9/21,19:19,35-25.37N,140-47.53E,37,24.861,
1161,2023/9/21,19:20,35-25.62N,140-47.75E,37,24.875,
1162,2023/9/21,19:21,35-25.83N,140-47.94E,36,24.877,
1163,2023/9/21,19:22,35-26.10N,140-48.18E,35,24.863,
1164,2023/9/21,19:23,35-26.35N,140-48.41E,36,24.851,
1165,2023/9/21,19:24,35-26.60N,140-48.63E,36,24.823,
1166,2023/9/21,19:25,35-26.85N,140-48.86E,36,24.83,
1167,2023/9/21,19:26,35-27.10N,140-49.08E,36,24.794,
1168,2023/9/21,19:27,35-27.34N,140-49.29E,35,24.746,
1169,2023/9/21,19:28,35-27.59N,140-49.51E,36,24.701,
1170,2023/9/21,19:29,35-27.80N,140-49.70E,35,24.649,
1171,2023/9/21,19:30,35-28.06N,140-49.92E,34,24.626,
1172,2023/9/21,19:31,35-28.31N,140-50.14E,35,24.588,
1173,2023/9/21,19:32,35-28.56N,140-50.35E,36,24.531,
1174,2023/9/21,19:33,35-28.81N,140-50.58E,35,24.485,
1175,2023/9/21,19:34,35-29.06N,140-50.79E,35,24.456,
1176,2023/9/21,19:35,35-29.31N,140-51.01E,35,24.444,
1177,2023/9/21,19:36,35-29.56N,140-51.22E,35,24.411,
1178,2023/9/21,19:37,35-29.81N,140-51.45E,36,24.383,
1179,2023/9/21,19:38,35-30.06N,140-51.67E,35,24.361,
1180,2023/9/21,19:39,35-30.31N,140-51.88E,35,24.332,
1181,2023/9/21,19:40,35-30.56N,140-52.11E,36,24.336,
1182,2023/9/21,19:41,35-30.81N,140-52.32E,35,24.315,
1183,2023/9/21,19:42,35-31.06N,140-52.54E,35,24.31,
1184,2023/9/21,19:43,35-31.31N,140-52.76E,35,24.351,
1185,2023/9/21,19:44,35-31.55N,140-52.97E,35,24.302,
1186,2023/9/21,19:45,35-31.80N,140-53.19E,36,24.296,
1187,2023/9/21,19:46,35-32.05N,140-53.41E,36,24.269,
1188,2023/9/21,19:47,35-32.28N,140-53.62E,35,24.281,
1189,2023/9/21,19:48,35-32.53N,140-53.85E,36,24.289,
1190,2023/9/21,19:49,35-32.78N,140-54.06E,36,24.288,
1191,2023/9/21,19:50,35-33.03N,140-54.28E,35,24.287,
1192,2023/9/21,19:51,35-33.27N,140-54.50E,36,24.284,
1193,2023/9/21,19:52,35-33.51N,140-54.72E,37,24.231,
1194,2023/9/21,19:53,35-33.77N,140-54.95E,36,24.253,
1195,2023/9/21,19:54,35-34.02N,140-55.17E,36,24.159,
1196,2023/9/21,19:55,35-34.27N,140-55.39E,36,24.134,
1197,2023/9/21,19:56,35-34.50N,140-55.61E,36,24.095,
1198,2023/9/21,19:57,35-34.75N,140-55.84E,36,24.059,
1199,2023/9/21,19:58,35-35.00N,140-56.06E,37,24.012,
1200,2023/9/21,19:59,35-35.24N,140-56.29E,36,23.976,
1201,2023/9/21,20:00,35-35.49N,140-56.51E,37,23.955,
1202,2023/9/21,20:01,35-35.73N,140-56.73E,35,23.943,
1203,2023/9/21,20:02,35-35.98N,140-56.96E,37,23.951,
1204,2023/9/21,20:03,35-36.22N,140-57.18E,33,23.958,
1205,2023/9/21,20:04,35-36.49N,140-57.28E,11,23.986,
1206,2023/9/21,20:05,35-36.78N,140-57.36E,15,23.951,
1207,2023/9/21,20:06,35-37.06N,140-57.47E,16,23.945,
1208,2023/9/21,20:07,35-37.35N,140-57.57E,16,24.082,
1209,2023/9/21,20:08,35-37.64N,140-57.67E,16,24.099,
1210,2023/9/21,20:09,35-37.92N,140-57.77E,16,24.098,
1211,2023/9/21,20:10,35-38.21N,140-57.89E,17,24.077,
1212,2023/9/21,20:11,35-38.50N,140-58.00E,18,24.055,
1213,2023/9/21,20:12,35-38.78N,140-58.11E,16,23.866,
1214,2023/9/21,20:13,35-39.08N,140-58.22E,17,23.84,
1215,2023/9/21,20:14,35-39.36N,140-58.33E,17,23.831,